EW0956 Weather Reports


time (UTC)temp
F
wind
direction
speed
knots
gust
knots
rain 1hr
in
rain 24hr
in
rain mn
in
humidity
%
barometer
mb
20260906174542 73 62 0.0 0.0 0.00 0.00 0.00 95 1017.2
20260906173042 73 141 0.0 0.9 0.00 0.00 0.00 94 1016.8
20260906171549 75 75 0.0 0.9 0.00 0.00 0.00 93 1017.0
20260906170044 76 84 0.0 0.0 0.00 0.01 0.00 92 1017.0
20260906164540 76 115 0.0 0.0 0.00 0.01 0.00 92 1017.1
20260906163038 76 113 0.0 0.9 0.00 0.01 0.00 92 1016.8
20260906161536 76 99 0.0 0.0 0.00 0.01 0.00 91 1016.6
20260906160039 77 145 0.0 0.9 0.00 0.01 0.00 91 1016.0
20260906154532 76 116 0.0 0.9 0.00 0.01 0.00 92 1015.8
20260906153031 76 119 0.0 4.3 0.00 0.01 0.00 93 1015.5
20260906151527 75 153 0.0 1.7 0.00 0.01 0.00 93 1015.9
20260906150028 75 138 0.0 0.9 0.00 0.01 0.00 94 1016.0
20260906144524 74 135 0.0 0.9 0.00 0.01 0.00 95 1016.2
20260906143022 74 149 0.0 4.3 0.00 0.01 0.00 94 1016.2
20260906141522 74 171 0.0 0.9 0.00 0.01 0.00 96 1016.4
20260906140017 73 143 0.0 0.9 0.00 0.01 0.00 96 1016.4
20260906134516 73 173 0.0 5.2 0.00 0.01 0.00 97 1016.4
20260906133016 72 116 0.0 0.0 0.00 0.01 0.00 98 1016.5
20260906131515 71 146 0.0 0.0 0.00 0.01 0.00 99 1016.4
20260906130014 71 146 0.0 3.5 0.00 0.01 0.00 99 1016.4
20260906124513 70 153 0.0 0.0 0.00 0.01 0.00 99 1016.4
20260906123012 70 145 0.0 1.7 0.00 0.01 0.00 99 1016.3
20260906121514 70 146 0.0 0.9 0.00 0.01 0.00 99 1016.2
20260906120009 70 155 0.0 0.9 0.00 0.01 0.00 98 1015.9
20260906114516 70 155 0.0 0.9 0.00 0.01 0.00 98 1015.8
20260906113012 70 170 0.0 0.0 0.00 0.01 0.00 98 1015.6
20260906111507 70 143 0.0 1.7 0.00 0.01 0.00 98 1015.4
20260906110005 70 139 0.0 3.5 0.00 0.01 0.00 98 1015.5
20260906104504 71 148 0.0 2.6 0.00 0.01 0.00 98 1015.7
20260906103003 71 159 0.0 2.6 0.00 0.01 0.00 98 1015.9
20260906101507 71 157 0.0 0.0 0.00 0.01 0.00 99 1015.8
20260906100002 70 153 0.0 0.0 0.00 0.01 0.00 99 1015.8
20260906094601 70 129 0.0 0.0 0.00 0.01 0.00 98 1015.7
20260906093102 71 155 0.0 0.0 0.00 0.01 0.00 99 1015.5
20260906091558 71 116 0.0 0.0 0.00 0.01 0.00 99 1015.5
20260906090058 71 111 0.0 0.0 0.00 0.01 0.00 99 1015.3
20260906084555 71 120 0.0 0.0 0.00 0.01 0.00 98 1015.3
20260906083055 71 131 0.0 0.0 0.00 0.01 0.00 98 1015.3
20260906081552 71 229 0.0 3.5 0.00 0.01 0.00 98 1015.3
20260906080059 71 131 0.0 0.0 0.00 0.01 0.00 98 1015.1
20260906074550 71 131 0.0 0.0 0.00 0.01 0.00 98 1015.2
20260906073052 72 149 0.0 0.9 0.00 0.01 0.00 98 1015.1
20260906071552 72 115 0.0 0.9 0.00 0.01 0.00 98 1015.0
20260906070049 72 136 0.0 1.7 0.00 0.01 0.00 98 1015.1
20260906064550 72 136 0.0 2.6 0.00 0.01 0.00 98 1015.3
20260906063045 72 139 0.0 2.6 0.00 0.01 0.00 98 1015.3
20260906061544 72 129 0.0 1.7 0.00 0.01 0.00 98 1015.3
20260906060042 72 134 0.0 0.0 0.00 0.01 0.00 98 1015.1
20260906054555 73 148 0.0 1.7 0.00 0.01 0.00 98 1015.2
20260906053040 73 142 0.0 3.5 0.00 0.01 0.00 98 1015.3
20260906051601 73 123 0.0 0.0 0.00 0.01 0.00 98 1015.3
20260906050037 73 120 0.0 1.7 0.00 0.01 0.01 98 1015.1
20260906044536 73 124 0.0 0.9 0.00 0.01 0.01 98 1015.1
20260906043034 74 104 0.0 0.9 0.00 0.01 0.01 97 1015.1
20260906041533 74 115 0.0 1.7 0.00 0.01 0.01 97 1015.3
20260906040058 74 125 0.0 1.7 0.00 0.01 0.01 97 1015.0
20260906034531 75 120 0.0 3.5 0.00 0.01 0.01 97 1015.0
20260906033044 75 103 0.0 1.7 0.00 0.01 0.01 97 1015.0
20260906031531 75 139 0.0 0.0 0.00 0.01 0.01 97 1015.1
20260906030030 75 137 0.0 0.0 0.00 0.01 0.01 97 1015.1
20260906024530 75 110 0.0 0.0 0.00 0.01 0.01 96 1015.1
20260906023028 76 110 0.0 0.0 0.00 0.01 0.01 96 1014.8
20260906021529 76 328 0.0 0.0 0.00 0.01 0.01 96 1014.7
20260906020028 76 96 0.0 0.0 0.00 0.01 0.01 95 1014.4
20260906014529 76 96 0.0 0.0 0.00 0.01 0.01 94 1014.1
20260906013029 77 96 0.0 0.0 0.00 0.01 0.01 93 1014.0
20260906011526 78 95 0.0 0.0 0.00 0.01 0.01 92 1013.7
20260906010025 79 109 0.0 0.0 0.00 0.01 0.01 92 1013.6
20260906004527 80 112 0.0 0.0 0.00 0.01 0.01 90 1013.6
20260906003024 82 139 0.0 0.0 0.00 0.01 0.01 87 1013.5
20260906001525 83 128 0.0 0.0 0.00 0.01 0.01 86 1013.6
20260906000023 83 114 0.0 0.0 0.00 0.01 0.01 85 1013.6
20260905234521 83 115 0.0 0.0 0.00 0.01 0.01 84 1013.6
20260905233020 83 127 0.0 0.0 0.00 0.01 0.01 84 1013.6
20260905231521 83 129 0.0 0.9 0.00 0.01 0.01 83 1013.6
20260905230018 82 148 0.0 0.9 0.00 0.01 0.01 82 1013.6
20260905224540 83 130 0.0 0.9 0.00 0.01 0.01 81 1013.2
20260905223021 83 153 0.0 0.0 0.00 0.01 0.01 81 1013.2
20260905221517 83 120 0.0 0.0 0.00 0.01 0.01 79 1013.2
20260905220013 82 132 0.0 0.9 0.00 0.01 0.01 82 1013.1
20260905214511 81 140 0.0 0.9 0.00 0.01 0.01 80 1013.2
20260905213011 81 129 0.0 0.9 0.00 0.01 0.01 80 1013.1
20260905211533 81 131 0.0 0.9 0.00 0.01 0.01 77 1013.2
20260905210017 82 121 0.0 0.9 0.00 0.01 0.01 75 1013.1
20260905204508 82 179 0.0 0.9 0.00 0.01 0.01 74 1013.1
20260905203006 81 164 0.0 0.9 0.00 0.01 0.01 77 1013.2
20260905201504 81 158 0.0 0.9 0.00 0.01 0.01 79 1013.0
20260905200104 80 148 0.0 0.9 0.00 0.01 0.01 81 1013.4
20260905194559 79 173 0.0 0.9 0.00 0.01 0.01 79 1013.6
20260905193057 79 158 0.0 1.7 0.00 0.01 0.01 80 1013.9
20260905191602 78 197 0.0 0.9 0.00 0.01 0.01 79 1013.9
20260905190054 78 155 0.0 0.9 0.00 0.01 0.01 82 1014.1
20260905184559 78 100 0.0 0.0 0.00 0.01 0.01 82 1014.2
20260905183050 77 121 0.0 0.0 0.00 0.01 0.01 83 1014.1
20260905181549 76 19 0.0 0.0 0.00 0.01 0.01 85 1013.7